CAPE
0 0 0 1 5 5 6 2 0 0 0 0 0 0 0 0 0 0 0 0 0 0 0 0 0 0 0 1 1 5 4 3 5 5 5 5 4 3 2 2 1 0 0 2 6 10 13 80 196
0 0 0 0 1 0 9 0 0 0 0 0 0 0 0 0 0 0 0 0 0 0 0 0 0 0 1 2 4 5 7 7 6 8 7 5 5 4 6 3 1 1 1 0 1 1 9 29 46
0 0 0 2 0 0 0 0 0 0 0 0 0 0 0 0 0 0 0 0 0 0 0 0 0 1 2 2 2 3 1 9 5 2 5 8 8 5 6 7 5 5 4 2 0 0 0 0 6
0 0 0 0 0 0 0 0 0 0 0 0 0 0 0 0 0 0 0 0 0 0 0 0 0 1 0 1 4 1 1 2 1 0 0 2 2 10 5 8 7 6 4 3 4 3 1 0 2
0 0 0 0 0 0 0 0 0 0 0 0 0 0 0 0 0 0 0 0 0 0 0 0 0 0 0 1 0 2 2 4 4 6 1 1 4 4 6 6 5 4 7 6 7 4 7 11 4
0 0 0 0 0 0 0 0 0 0 0 0 0 0 0 0 0 0 0 0 0 0 0 0 0 0 0 2 6 4 3 6 4 5 13 11 10 10 11 8 6 3 15 3 3 4 4 8 6
0 0 0 0 0 0 0 0 0 0 0 0 0 0 0 0 0 0 0 0 0 0 0 0 0 0 0 0 2 1 6 4 6 7 5 5 4 4 4 6 3 3 2 7 1 4 7 4 8
0 0 0 0 0 0 0 0 0 0 0 0 0 0 0 0 0 0 0 0 0 0 0 0 0 0 0 0 0 0 5 5 3 1 1 0 0 0 1 1 3 15 7 9 12 8 7 8 13
0 0 0 0 0 0 0 0 0 0 0 0 0 0 0 0 0 0 0 0 0 0 0 0 0 0 0 0 0 0 0 0 0 0 0 0 0 0 0 1 2 5 4 7 13 17 12 0 0
0 0 0 0 0 0 0 0 0 0 0 0 0 0 0 0 0 0 0 0 0 0 0 0 0 0 0 0 0 0 0 0 0 0 0 0 0 0 0 0 2 3 2 2 4 4 4 3 0
0 0 0 0 0 0 0 0 0 0 0 0 0 0 0 0 0 0 0 0 0 0 0 0 0 0 0 0 0 0 0 0 0 0 0 0 0 0 0 2 2 1 0 2 1 0 1 3 0
0 0 0 0 0 0 0 0 0 0 0 0 0 0 0 0 0 0 0 0 0 0 0 0 0 0 0 0 0 0 0 0 0 0 0 0 0 0 0 0 1 1 1 2 3 4 3 1 0
0 0 0 0 0 0 0 0 0 0 0 0 0 0 0 0 0 0 0 0 0 0 0 0 0 0 0 0 0 0 0 0 0 0 0 0 0 0 0 0 0 1 3 3 1 0 0 1 1
0 0 0 0 0 0 0 0 0 0 0 0 0 0 0 0 0 0 0 0 0 0 0 0 0 0 0 0 0 0 0 0 0 0 0 0 0 0 0 0 0 0 0 1 1 0 0 0 0
0 0 0 0 0 0 0 0 0 0 0 0 0 0 0 0 0 0 0 0 0 0 0 0 0 0 0 0 0 0 0 0 0 0 0 0 0 0 0 0 0 0 0 0 0 0 0 0 0
0 0 0 0 0 0 0 0 0 0 0 0 0 0 0 0 0 0 0 0 0 0 0 0 0 0 0 0 0 0 0 0 0 0 0 0 0 0 0 0 0 0 0 0 0 0 0 0 0
0 0 0 0 0 0 0 0 0 0 0 0 0 0 0 0 0 0 0 0 0 0 0 0 0 0 0 0 0 0 0 0 0 0 0 0 0 0 0 0 0 0 0 0 0 0 0 0 0
0 0 0 0 0 0 0 0 0 0 0 0 0 0 0 0 0 0 0 0 0 0 0 0 0 0 0 0 0 0 0 0 0 0 0 0 0 0 0 0 0 0 0 0 0 0 0 0 0
0 0 0 0 0 0 0 0 0 0 0 0 0 0 0 0 0 0 0 0 0 0 0 0 0 0 0 0 0 0 0 0 0 0 0 0 0 0 0 0 0 0 0 0 0 0 0 0 0
0 0 0 0 0 0 0 0 0 0 0 0 0 0 0 0 0 0 0 0 0 0 0 0 0 0 0 0 0 0 0 0 0 0 0 0 0 0 0 0 0 0 0 0 0 0 0 0 0
0 0 0 0 0 0 0 0 0 0 0 0 0 0 0 0 0 0 0 0 0 0 0 0 0 0 0 0 0 0 0 0 0 0 0 0 0 0 0 0 0 0 0 0 0 0 0 0 0
0 0 0 0 0 0 0 0 0 0 0 0 0 0 0 0 0 0 0 0 0 0 0 0 0 0 0 0 0 0 0 0 0 0 0 0 0 0 0 0 0 0 0 0 0 0 0 0 0
0 0 0 0 0 0 0 0 0 0 0 0 0 0 0 0 0 0 0 0 0 0 0 0 0 0 0 0 0 0 0 0 0 0 0 0 0 0 0 0 0 0 0 0 0 0 0 0 0
0 0 0 0 0 0 0 0 0 0 0 0 0 0 0 0 0 0 0 0 0 0 0 0 0 0 0 0 0 0 0 0 0 0 0 0 0 0 0 0 0 0 0 0 0 0 0 0 1
0 0 0 0 0 0 0 0 0 0 0 0 0 0 0 0 0 0 0 0 0 0 0 0 0 0 0 0 0 0 0 0 0 0 0 0 0 0 0 0 0 0 0 0 0 0 0 0 1
0 0 0 0 0 0 0 0 0 0 0 0 0 0 0 0 0 0 0 0 0 0 0 0 0 0 0 0 0 0 0 0 0 0 0 0 0 0 0 0 0 0 0 0 0 0 0 0 0
0 0 0 0 0 0 0 0 0 0 0 0 0 0 0 0 0 0 0 0 0 0 0 0 0 0 0 0 0 0 0 0 0 0 0 0 0 0 0 0 0 0 0 0 0 0 0 0 0
0 0 0 0 0 0 0 0 0 0 0 0 0 0 0 0 0 0 0 0 0 0 0 0 0 0 0 0 0 0 0 0 0 0 0 0 0 0 0 0 0 0 0 0 0 0 0 0 0
0 0 0 0 0 0 0 0 0 0 0 0 0 0 0 0 0 0 0 0 0 0 0 0 0 0 0 0 0 0 0 0 0 0 0 0 0 0 0 0 0 0 0 0 0 0 0 0 0
0 0 0 0 0 0 0 0 0 0 0 0 0 0 0 0 0 0 0 0 0 0 0 0 0 0 0 0 0 0 0 0 0 0 0 0 0 0 0 0 0 0 0 0 0 0 0 0 0
CIN
-0 -0 -0 -53 -150 -20 -162 -45 -0 -0 -0 -0 -0 -0 -0 -0 -0 -0 -0 -0 -0 -0 -0 -0 -0 -0 -0 -0 -0 -0 -0 -0 -0 -0 -0 -0 -1 -1 -0 -0 -0 -0 -0 -0 -0 -0 -49 -87 -26
-0 -0 -0 -0 -83 -0 -114 -0 -0 -0 -0 -0 -0 -0 -0 -0 -0 -0 -0 -0 -0 -0 -0 -0 -0 -0 -0 -0 -0 -0 -0 -0 -0 -0 -0 -0 -0 -0 -0 -0 -0 -0 -0 -0 -0 -0 -0 -125 -136
-0 -0 -0 -57 -0 -0 -0 -0 -0 -0 -0 -0 -0 -0 -0 -0 -0 -0 -0 -0 -0 -0 -0 -0 -0 -0 -0 -0 -0 -0 -0 -0 -0 -0 -0 -0 -0 -0 -0 -0 -0 -0 -0 -0 -0 -0 -0 -0 -0
-0 -0 -0 -0 -0 -0 -0 -0 -0 -0 -0 -0 -0 -0 -0 -0 -0 -0 -0 -0 -0 -0 -0 -0 -0 -0 -0 -0 -0 -0 -0 -0 -0 -0 -0 -0 -0 -0 -0 -0 -0 -0 -1 -0 -1 -0 -0 -0 -0
-0 -0 -0 -0 -0 -0 -0 -0 -0 -0 -0 -0 -0 -0 -0 -0 -0 -0 -0 -0 -0 -0 -0 -0 -0 -0 -0 -0 -0 -0 -0 -0 -0 -0 -0 -0 -0 -0 -0 -0 -0 -0 -0 -0 -0 -0 -0 -0 -0
-0 -0 -0 -0 -0 -0 -0 -0 -0 -0 -0 -0 -0 -0 -0 -0 -0 -0 -0 -0 -0 -0 -0 -0 -0 -0 -0 -0 -0 -0 -0 -0 -0 -0 -0 -0 -0 -0 -0 -0 -0 -0 -0 -0 -0 -0 -0 -0 -0
-0 -0 -0 -0 -0 -0 -0 -0 -0 -0 -0 -0 -0 -0 -0 -0 -0 -0 -0 -0 -0 -0 -0 -0 -0 -0 -0 -0 -0 -0 -0 -0 -0 -0 -0 -0 -0 -0 -0 -0 -0 -0 -0 -0 -0 -0 -0 -0 -0
-0 -0 -0 -0 -0 -0 -0 -0 -0 -0 -0 -0 -0 -0 -0 -0 -0 -0 -0 -0 -0 -0 -0 -0 -0 -0 -0 -0 -0 -0 -0 -0 -0 -0 -0 -0 -0 -0 -0 -0 -0 -0 -0 -0 -0 -0 -0 -0 -0
-0 -0 -0 -0 -0 -0 -0 -0 -0 -0 -0 -0 -0 -0 -0 -0 -0 -0 -0 -0 -0 -0 -0 -0 -0 -0 -0 -0 -0 -0 -0 -0 -0 -0 -0 -0 -0 -0 -0 -0 -0 -0 -0 -0 -0 -0 -0 -0 -0
-0 -0 -0 -0 -0 -0 -0 -0 -0 -0 -0 -0 -0 -0 -0 -0 -0 -0 -0 -0 -0 -0 -0 -0 -0 -0 -0 -0 -0 -0 -0 -0 -0 -0 -0 -0 -0 -0 -0 -0 -0 -0 -0 -0 -0 -0 -0 -0 -0
-0 -0 -0 -0 -0 -0 -0 -0 -0 -0 -0 -0 -0 -0 -0 -0 -0 -0 -0 -0 -0 -0 -0 -0 -0 -0 -0 -0 -0 -0 -0 -0 -0 -0 -0 -0 -0 -0 -0 -0 -0 -0 -0 -0 -0 -0 -0 -0 -0
-0 -0 -0 -0 -0 -0 -0 -0 -0 -0 -0 -0 -0 -0 -0 -0 -0 -0 -0 -0 -0 -0 -0 -0 -0 -0 -0 -0 -0 -0 -0 -0 -0 -0 -0 -0 -0 -0 -0 -0 -0 -0 -0 -0 -0 -0 -0 -0 -0
-0 -0 -0 -0 -0 -0 -0 -0 -0 -0 -0 -0 -0 -0 -0 -0 -0 -0 -0 -0 -0 -0 -0 -0 -0 -0 -0 -0 -0 -0 -0 -0 -0 -0 -0 -0 -0 -0 -0 -0 -0 -0 -0 -0 -0 -0 -0 -0 -0
-0 -0 -0 -0 -0 -0 -0 -0 -0 -0 -0 -0 -0 -0 -0 -0 -0 -0 -0 -0 -0 -0 -0 -0 -0 -0 -0 -0 -0 -0 -0 -0 -0 -0 -0 -0 -0 -0 -0 -0 -0 -0 -0 -0 -0 -0 -0 -0 -0
-0 -0 -0 -0 -0 -0 -0 -0 -0 -0 -0 -0 -0 -0 -0 -0 -0 -0 -0 -0 -0 -0 -0 -0 -0 -0 -0 -0 -0 -0 -0 -0 -0 -0 -0 -0 -0 -0 -0 -0 -0 -0 -0 -0 -0 -0 -0 -0 -0
-0 -0 -0 -0 -0 -0 -0 -0 -0 -0 -0 -0 -0 -0 -0 -0 -0 -0 -0 -0 -0 -0 -0 -0 -0 -0 -0 -0 -0 -0 -0 -0 -0 -0 -0 -0 -0 -0 -0 -0 -0 -0 -0 -0 -0 -0 -0 -0 -0
-0 -0 -0 -0 -0 -0 -0 -0 -0 -0 -0 -0 -0 -0 -0 -0 -0 -0 -0 -0 -0 -0 -0 -0 -0 -0 -0 -0 -0 -0 -0 -0 -0 -0 -0 -0 -0 -0 -0 -0 -0 -0 -0 -0 -0 -0 -0 -0 -0
-0 -0 -0 -0 -0 -0 -0 -0 -0 -0 -0 -0 -0 -0 -0 -0 -0 -0 -0 -0 -0 -0 -0 -0 -0 -0 -0 -0 -0 -0 -0 -0 -0 -0 -0 -0 -0 -0 -0 -0 -0 -0 -0 -0 -0 -0 -0 -0 -0
-0 -0 -0 -0 -0 -0 -0 -0 -0 -0 -0 -0 -0 -0 -0 -0 -0 -0 -0 -0 -0 -0 -0 -0 -0 -0 -0 -0 -0 -0 -0 -0 -0 -0 -0 -0 -0 -0 -0 -0 -0 -0 -0 -0 -0 -0 -0 -0 -0
-0 -0 -0 -0 -0 -0 -0 -0 -0 -0 -0 -0 -0 -0 -0 -0 -0 -0 -0 -0 -0 -0 -0 -0 -0 -0 -0 -0 -0 -0 -0 -0 -0 -0 -0 -0 -0 -0 -0 -0 -0 -0 -0 -0 -0 -0 -0 -0 -0
-0 -0 -0 -0 -0 -0 -0 -0 -0 -0 -0 -0 -0 -0 -0 -0 -0 -0 -0 -0 -0 -0 -0 -0 -0 -0 -0 -0 -0 -0 -0 -0 -0 -0 -0 -0 -0 -0 -0 -0 -0 -0 -0 -0 -0 -0 -0 -0 -0
-0 -0 -0 -0 -0 -0 -0 -0 -0 -0 -0 -0 -0 -0 -0 -0 -0 -0 -0 -0 -0 -0 -0 -0 -0 -0 -0 -0 -0 -0 -0 -0 -0 -0 -0 -0 -0 -0 -0 -0 -0 -0 -0 -0 -0 -0 -0 -0 -0
-0 -0 -0 -0 -0 -0 -0 -0 -0 -0 -0 -0 -0 -0 -0 -0 -0 -0 -0 -0 -0 -0 -0 -0 -0 -0 -0 -0 -0 -0 -0 -0 -0 -0 -0 -0 -0 -0 -0 -0 -0 -0 -0 -0 -0 -0 -0 -0 -0
-0 -0 -0 -0 -0 -0 -0 -0 -0 -0 -0 -0 -0 -0 -0 -0 -0 -0 -0 -0 -0 -0 -0 -0 -0 -0 -0 -0 -0 -0 -0 -0 -0 -0 -0 -0 -0 -0 -0 -0 -0 -0 -0 -0 -0 -0 -0 -0 -0
-0 -0 -0 -0 -0 -0 -0 -0 -0 -0 -0 -0 -0 -0 -0 -0 -0 -0 -0 -0 -0 -0 -0 -0 -0 -0 -0 -0 -0 -0 -0 -0 -0 -0 -0 -0 -0 -0 -0 -0 -0 -0 -0 -0 -0 -0 -0 -0 -0
-0 -0 -0 -0 -0 -0 -0 -0 -0 -0 -0 -0 -0 -0 -0 -0 -0 -0 -0 -0 -0 -0 -0 -0 -0 -0 -0 -0 -0 -0 -0 -0 -0 -0 -0 -0 -0 -0 -0 -0 -0 -0 -0 -0 -0 -0 -0 -0 -0
-0 -0 -0 -0 -0 -0 -0 -0 -0 -0 -0 -0 -0 -0 -0 -0 -0 -0 -0 -0 -0 -0 -0 -0 -0 -0 -0 -0 -0 -0 -0 -0 -0 -0 -0 -0 -0 -0 -0 -0 -0 -0 -0 -0 -0 -0 -0 -0 -0
-0 -0 -0 -0 -0 -0 -0 -0 -0 -0 -0 -0 -0 -0 -0 -0 -0 -0 -0 -0 -0 -0 -0 -0 -0 -0 -0 -0 -0 -0 -0 -0 -0 -0 -0 -0 -0 -0 -0 -0 -0 -0 -0 -0 -0 -0 -0 -0 -0
-0 -0 -0 -0 -0 -0 -0 -0 -0 -0 -0 -0 -0 -0 -0 -0 -0 -0 -0 -0 -0 -0 -0 -0 -0 -0 -0 -0 -0 -0 -0 -0 -0 -0 -0 -0 -0 -0 -0 -0 -0 -0 -0 -0 -0 -0 -0 -0 -0
-0 -0 -0 -0 -0 -0 -0 -0 -0 -0 -0 -0 -0 -0 -0 -0 -0 -0 -0 -0 -0 -0 -0 -0 -0 -0 -0 -0 -0 -0 -0 -0 -0 -0 -0 -0 -0 -0 -0 -0 -0 -0 -0 -0 -0 -0 -0 -0 -0
Wind_Speed
15 15 15 15 15 14 14 15 13 12 11 16 17 18 10 10 12 12 16 11 13 14 16 18 20 20 21 22 25 26 24 26 30 31 33 33 34 33 32 32 31 32 31 32 33 33 34 34 33
16 17 15 16 17 18 16 15 11 11 7 17 18 18 14 11 15 16 16 13 14 15 17 18 21 22 23 23 26 27 28 30 31 32 33 33 32 31 31 31 31 31 32 33 34 33 34 34 34
17 14 19 18 18 19 19 19 6 23 16 20 20 15 16 13 15 15 13 12 13 16 18 18 21 22 24 26 27 27 29 31 31 29 31 32 33 33 33 33 34 34 35 34 34 35 35 36 36
19 18 16 18 18 19 20 22 22 23 20 16 19 17 15 14 15 15 14 11 14 17 17 16 20 22 26 27 26 27 31 30 30 31 33 33 34 35 35 36 36 36 36 36 35 35 36 36 36
17 18 19 17 19 19 21 22 23 21 19 17 18 17 16 15 15 14 11 11 13 14 17 18 20 22 25 28 28 30 31 31 31 32 33 34 34 34 35 36 37 36 35 34 33 34 36 37 38
20 19 21 20 19 19 21 22 20 19 19 18 15 16 17 18 18 15 12 10 14 15 17 19 19 17 28 29 29 30 30 31 31 32 33 33 34 35 35 36 35 34 33 33 35 36 36 35 38
21 21 21 20 20 20 22 23 21 20 19 18 17 15 17 19 19 17 13 8 15 11 17 23 9 23 27 24 29 29 29 30 31 32 33 34 34 35 36 36 36 36 36 35 35 35 35 33 35
18 20 21 20 21 20 23 23 20 21 20 18 18 18 17 19 19 16 14 15 16 25 27 28 27 25 23 24 28 28 29 30 31 32 33 34 35 36 37 36 38 37 36 36 36 37 36 33 31
15 20 21 20 21 20 22 23 21 19 20 20 19 19 17 20 18 14 11 9 15 27 28 28 27 27 26 25 28 28 29 29 30 32 33 34 35 36 37 37 36 37 36 35 36 35 31 30 25
21 21 21 20 21 19 23 22 24 22 22 22 20 19 19 18 16 13 11 7 25 27 28 28 27 27 27 26 27 27 28 28 30 32 33 33 34 34 34 33 36 37 36 35 35 32 26 29 26
21 21 21 20 20 19 22 23 23 23 23 22 20 19 17 15 14 14 17 21 23 23 25 27 26 26 27 27 27 27 27 29 29 32 33 33 34 34 34 34 35 37 37 36 35 32 28 26 25
9 20 20 20 20 20 22 21 23 24 22 20 18 16 14 13 12 13 18 20 22 24 24 25 25 25 26 26 27 28 29 29 30 32 33 33 34 35 36 36 37 37 36 36 35 33 31 25 24
11 11 18 18 17 18 18 23 23 23 22 21 11 12 11 10 10 14 17 20 21 23 23 24 25 25 25 26 26 28 29 29 30 31 33 33 34 35 36 37 37 37 37 35 34 33 32 30 23
13 11 14 17 17 17 20 22 21 20 4 7 8 9 8 8 9 13 16 18 20 21 22 22 24 24 24 25 26 27 28 29 30 31 32 33 34 35 36 38 39 39 38 36 33 34 33 32 29
11 13 15 15 15 17 18 26 19 18 8 6 6 5 5 6 9 11 14 17 19 20 20 21 21 22 23 23 25 26 27 28 29 30 32 33 34 35 36 38 39 40 40 39 37 37 34 33 32
13 15 17 17 14 17 14 22 18 13 3 3 2 2 3 5 7 10 12 15 17 18 19 19 19 20 21 22 23 25 26 28 29 30 31 33 34 35 36 38 39 40 40 40 39 39 37 35 33
17 17 18 20 16 16 13 19 17 15 7 1 1 2 3 5 7 8 10 12 15 17 17 17 17 17 19 21 22 24 26 27 29 30 31 32 34 35 36 38 39 40 40 41 40 40 39 36 32
18 18 19 20 17 17 18 26 20 20 13 6 5 5 6 6 5 7 9 11 14 16 16 15 15 14 16 17 20 23 25 26 27 29 31 32 33 35 36 37 39 40 41 41 41 40 40 38 30
14 19 21 20 20 21 24 32 35 23 16 10 9 9 9 10 9 9 10 10 13 14 14 14 12 12 12 14 17 19 23 24 26 28 30 32 33 34 36 37 39 40 42 42 42 38 40 41 36
19 21 24 22 22 22 29 39 36 28 18 13 14 14 16 16 12 11 10 10 11 12 13 13 11 11 12 13 15 17 18 21 24 26 29 31 32 34 35 37 39 41 41 42 42 41 37 38 41
20 22 22 26 23 24 33 39 31 26 24 26 30 27 20 15 13 12 10 8 10 10 11 11 10 10 11 12 13 15 17 19 22 25 27 30 31 33 35 36 38 40 41 42 41 40 39 36 38
23 20 19 21 26 31 26 38 34 33 34 33 33 29 21 14 11 10 9 6 5 7 9 9 8 9 11 12 13 13 15 17 20 22 25 27 30 32 34 35 37 39 40 42 41 39 38 37 38
22 17 19 20 23 27 27 30 29 29 29 25 27 31 20 9 5 7 7 5 3 4 5 6 6 8 9 11 12 12 14 16 18 20 23 26 28 31 33 35 36 38 38 40 41 41 40 38 37
10 18 20 22 23 31 26 23 27 24 24 29 28 30 23 12 7 1 4 3 1 2 3 4 4 6 8 9 10 11 12 14 16 18 21 24 26 29 32 33 35 36 37 39 39 39 39 38 37
19 20 27 28 25 27 21 22 25 29 29 28 31 29 23 15 8 2 3 4 3 2 1 2 2 3 6 7 9 10 11 13 15 17 19 22 24 27 30 32 34 35 36 37 38 39 39 38 37
19 22 23 28 25 24 20 26 26 26 23 21 23 23 20 17 13 5 2 4 4 3 3 2 1 1 3 5 8 10 10 12 14 16 18 20 22 25 27 30 32 34 35 36 37 38 38 38 37
21 24 21 25 28 31 28 27 24 17 18 21 23 22 22 19 14 7 1 2 4 3 2 2 2 2 2 3 6 7 8 10 12 14 17 19 21 23 26 29 31 33 34 36 37 38 38 38 38
22 16 24 24 30 32 27 24 19 17 22 23 21 24 25 22 16 9 1 3 2 2 1 1 2 2 1 2 4 5 6 8 10 12 14 17 19 22 24 27 30 32 34 35 36 38 37 38 38
21 24 23 22 24 27 28 28 16 15 21 20 22 29 29 24 17 10 4 2 4 4 4 4 3 3 2 0 3 3 5 6 8 10 12 14 17 20 23 25 28 30 33 34 35 37 37 38 38
22 24 22 29 30 26 26 27 17 18 18 22 32 33 32 26 19 12 7 4 4 5 5 5 5 5 4 2 2 4 4 5 7 8 10 12 15 17 20 23 26 28 31 33 35 36 36 38 38
Wind_Direction
239 251 245 244 251 244 258 251 274 264 269 176 175 161 10 335 350 1 186 250 271 281 290 300 303 300 302 304 311 313 303 309 320 318 326 331 335 341 341 341 340 336 334 330 326 322 320 319 318
225 218 232 230 218 203 239 252 276 269 322 71 164 169 214 248 198 195 197 256 284 293 297 299 307 308 311 310 319 318 318 325 327 330 337 343 352 353 351 350 347 343 336 330 328 325 322 318 317
204 247 185 195 194 194 206 209 309 130 178 163 144 191 195 217 203 205 208 233 273 295 300 296 304 309 314 321 320 319 325 339 353 7 3 357 352 352 352 349 345 341 338 335 331 327 322 316 312
173 192 199 185 197 172 168 182 189 140 180 205 164 124 210 215 205 197 193 240 287 299 295 289 305 312 325 326 319 324 346 3 2 3 356 355 354 351 349 347 346 344 343 340 336 331 324 319 312
195 180 172 193 177 180 174 179 176 194 189 210 199 202 206 212 202 203 231 252 281 284 297 299 307 314 325 343 336 349 355 2 1 359 357 355 355 356 353 352 351 353 353 350 346 340 331 321 311
166 172 160 177 177 186 179 181 190 194 196 208 231 211 199 192 185 182 185 243 290 291 299 305 304 302 354 358 351 357 0 5 1 3 3 2 2 1 1 1 3 4 5 1 354 347 339 331 316
164 165 157 180 187 186 182 184 193 198 211 213 213 224 205 180 158 138 146 185 302 84 31 321 79 25 11 30 9 11 17 11 7 8 6 8 9 8 9 10 10 10 8 6 2 358 353 346 330
207 188 165 176 176 188 182 194 212 206 206 212 212 203 204 170 141 129 111 86 72 28 14 6 16 29 37 33 20 19 13 11 11 11 9 15 15 14 13 15 13 14 15 14 9 6 4 0 350
252 181 170 180 178 199 162 179 203 209 206 205 202 195 179 127 134 135 136 126 68 14 9 5 13 12 19 29 20 19 20 19 16 16 17 19 20 20 19 19 20 18 18 17 15 12 14 14 14
188 161 172 187 190 198 188 195 184 197 199 195 196 181 146 135 131 121 112 144 343 349 2 6 9 11 14 23 20 24 26 29 26 22 21 23 24 24 25 26 23 21 22 22 22 24 27 27 32
199 164 187 193 206 211 187 198 200 195 197 187 184 153 135 122 100 74 41 15 12 23 20 13 18 21 21 22 27 30 33 32 31 24 22 25 25 26 26 27 26 26 26 29 31 33 37 39 42
300 222 216 216 220 217 196 209 207 192 208 206 173 133 122 108 86 51 22 19 17 17 21 24 24 23 22 27 29 31 33 33 30 26 22 25 25 23 24 27 27 28 29 31 34 38 40 48 49
298 297 257 250 253 245 247 219 205 203 189 204 101 107 109 89 57 26 20 15 16 16 21 21 23 22 24 27 32 31 30 30 29 25 21 22 24 23 24 26 26 27 30 33 35 38 41 46 54
299 301 293 275 272 275 265 250 262 259 303 79 102 109 91 65 43 24 16 13 14 17 20 22 21 26 29 29 28 30 30 28 26 25 21 21 24 24 26 25 25 26 28 32 36 35 39 42 49
299 299 297 296 293 292 288 258 188 295 349 82 99 75 55 38 21 14 13 11 11 14 18 19 23 26 30 31 30 30 29 28 24 23 21 21 23 23 24 24 24 22 23 25 29 30 34 36 42
295 294 289 292 297 294 305 272 297 317 10 117 85 61 38 11 7 10 11 11 12 13 13 20 23 27 32 32 29 29 26 26 25 24 23 20 21 22 24 24 22 21 21 23 24 23 25 29 34
288 287 287 289 294 300 302 300 310 317 337 355 208 263 310 329 343 356 2 8 10 13 17 19 25 35 37 34 32 26 23 23 24 26 24 22 23 23 25 24 23 22 23 22 23 22 22 24 30
284 287 290 292 301 297 298 273 302 307 318 310 283 273 277 288 301 333 344 354 2 6 9 13 22 37 40 34 31 25 21 22 24 24 26 25 23 22 24 24 23 23 23 23 23 24 23 23 27
297 290 290 297 300 297 293 285 280 304 306 289 271 268 268 285 305 315 327 340 350 357 3 8 18 27 38 30 24 22 18 20 20 24 24 24 23 23 25 27 25 25 25 25 25 30 26 22 21
288 290 287 296 300 298 294 277 290 303 304 292 282 283 289 294 291 295 306 322 335 348 357 3 15 24 38 36 28 27 24 25 23 23 25 23 25 27 31 29 29 27 30 30 31 31 35 32 23
286 287 290 291 300 302 296 284 298 307 312 312 306 302 299 284 276 281 285 302 325 340 348 359 13 26 29 33 37 26 24 24 20 19 22 23 30 30 31 30 31 31 32 32 33 35 34 35 31
282 291 296 300 297 292 306 289 295 303 298 308 308 309 305 295 279 262 258 273 307 337 346 356 11 21 18 30 28 26 26 26 22 22 25 28 29 30 32 31 31 32 33 33 33 35 36 37 32
284 295 297 302 301 300 302 301 300 309 301 319 323 319 331 324 277 224 224 236 289 343 350 356 7 12 18 21 26 32 30 30 25 23 25 27 28 29 30 32 33 33 33 32 32 33 35 36 36
291 291 300 303 302 293 303 306 301 313 318 313 321 324 333 339 341 211 203 196 242 12 17 6 10 10 12 18 25 30 33 31 25 20 22 25 28 30 31 33 33 33 34 33 32 33 35 37 37
280 282 284 288 290 291 304 306 304 310 308 319 314 317 339 354 355 16 176 179 168 152 98 50 25 15 15 18 18 19 28 28 21 19 22 24 26 28 30 34 33 34 35 35 34 33 34 36 37
273 277 280 285 289 293 304 298 313 321 332 343 347 346 353 355 355 358 171 176 173 159 143 124 107 66 32 27 12 7 13 15 10 12 21 24 28 30 33 35 35 36 38 36 35 35 37 40 39
275 274 287 287 290 289 295 302 313 336 348 345 345 354 358 3 6 4 29 186 179 178 169 151 143 122 69 32 20 22 24 21 17 12 13 16 24 29 30 32 34 36 38 37 37 35 38 40 41
278 283 281 284 285 286 295 300 308 315 326 335 343 348 347 349 355 8 17 205 229 236 205 190 173 171 147 43 21 23 22 20 19 13 18 22 24 28 31 32 34 36 38 37 38 38 39 41 42
274 276 283 286 286 288 292 298 316 319 327 332 330 332 337 339 340 343 336 264 237 252 257 261 253 243 221 289 355 3 10 11 9 5 14 23 29 29 28 32 35 37 38 38 39 38 41 41 42
279 278 276 277 281 289 294 295 321 323 322 321 319 327 329 331 332 334 322 295 264 246 245 241 241 240 242 261 308 322 349 352 355 358 15 24 27 28 31 33 36 38 40 39 40 40 43 43 43